Find Starlink 5998

NORAD ID: 56468 Int'l Des: 2023-064 Owner: SPXS Country: US Constellation: starlink operational
LEOCIRCULAR

Live Position

Loading 3D Globe...

About Starlink 5998

Description loading...

Upcoming Passes

Passes for default location (London). Set your location on the main map for personalized predictions.

Altitude History

Loading altitude history...

Two-Line Element Set

1 56468U 23064W 26126.39073679 -.00000289 00000-0 -16455-4 0 9991
2 56468 69.9996 358.7895 0002612 271.4067 88.6792 14.98329863163892
Epoch: May 6, 2026 • Age: 13 hours

Current Status

Altitude 575.7 km
Velocity 7.58 km/s
Sub-Earth Point 27.12°N, 41.13°W
Launch Date May 10, 2023
Age 2.9 years
Type internet

Technical Details

Classification Payload
Mass 305.00 kg
Dry Mass 290.00 kg
Total Mass 305.00 kg
Length 0.20 m
Diameter 2.80 m
Span 9.00 m
Shape Box + pan
Manufacturer SPXS
Bus Type Starlink
Phase Status In Orbit
Owner/State SPXS/US

Most Searched